ASA1365 KLAX-MMPR

Flight info

Callsign ASA1365
Flight time 2h 25m
Altitude 37000
Route PNDAH2 OTAYY DCT TIJ UT4 LMM UJ3 MZT J141 OBRUG OBRUG1B
Aircraft B738/M-SDE2E3FGHIRWXY/LB1

Departure

Time 2026-04-26 20:14
Airport Los Angeles International Airport (KLAX)

Arrival

Time 2026-04-26 22:39
Airport Puerto Vallarta International Airport (MMPR)
Time Latitude Longitude Altitude Speed Heading
2026-04-26 19:42 33.94145 -118.40147 92 ft 0 kts 275°
2026-04-26 20:02 33.94144 -118.40136 92 ft 4 kts 278°
2026-04-26 20:03 33.94137 -118.40095 92 ft 4 kts 268°
2026-04-26 20:03 33.94132 -118.40082 92 ft 2 kts 174°
2026-04-26 20:03 33.94134 -118.40082 92 ft 0 kts 173°
2026-04-26 20:06 33.94132 -118.40082 92 ft 1 kts 173°
2026-04-26 20:06 33.94128 -118.40081 92 ft 1 kts 173°
2026-04-26 20:06 33.94115 -118.40079 94 ft 4 kts 173°
2026-04-26 20:06 33.94081 -118.40074 92 ft 6 kts 170°
2026-04-26 20:07 33.94036 -118.40067 92 ft 7 kts 173°
2026-04-26 20:07 33.93989 -118.40060 94 ft 7 kts 174°
2026-04-26 20:07 33.93942 -118.40053 95 ft 7 kts 168°
2026-04-26 20:07 33.93897 -118.40023 96 ft 8 kts 136°
2026-04-26 20:08 33.93882 -118.39958 97 ft 8 kts 84°
2026-04-26 20:08 33.93890 -118.39877 95 ft 12 kts 82°
2026-04-26 20:08 33.93901 -118.39769 94 ft 13 kts 83°
2026-04-26 20:08 33.93913 -118.39662 94 ft 13 kts 83°
2026-04-26 20:09 33.93923 -118.39557 94 ft 12 kts 83°
2026-04-26 20:09 33.93933 -118.39455 93 ft 12 kts 84°
2026-04-26 20:09 33.93944 -118.39355 95 ft 12 kts 82°
2026-04-26 20:09 33.93955 -118.39258 94 ft 12 kts 83°
2026-04-26 20:10 33.93964 -118.39164 93 ft 11 kts 83°
2026-04-26 20:10 33.93975 -118.39061 93 ft 15 kts 83°
2026-04-26 20:10 33.93983 -118.38976 93 ft 15 kts 83°
2026-04-26 20:10 33.93995 -118.38851 93 ft 15 kts 84°
2026-04-26 20:11 33.94006 -118.38730 93 ft 14 kts 84°
2026-04-26 20:11 33.94017 -118.38615 97 ft 13 kts 85°
2026-04-26 20:11 33.94029 -118.38506 95 ft 13 kts 80°
2026-04-26 20:12 33.94051 -118.38296 96 ft 12 kts 89°
2026-04-26 20:12 33.94062 -118.38195 93 ft 12 kts 79°
2026-04-26 20:12 33.94074 -118.38096 92 ft 12 kts 82°
2026-04-26 20:12 33.94053 -118.38010 92 ft 12 kts 150°
2026-04-26 20:13 33.93985 -118.38017 94 ft 10 kts 241°
2026-04-26 20:13 33.93969 -118.38149 95 ft 38 kts 263°
2026-04-26 20:13 33.93905 -118.38751 95 ft 106 kts 262°
2026-04-26 20:13 33.93795 -118.39837 251 ft 145 kts 263°
2026-04-26 20:14 33.93698 -118.41142 695 ft 170 kts 264°
2026-04-26 20:14 33.93591 -118.42612 1448 ft 173 kts 262°
2026-04-26 20:14 33.93438 -118.44026 2272 ft 175 kts 263°
2026-04-26 20:14 33.93279 -118.45523 2726 ft 183 kts 263°
2026-04-26 20:15 33.92859 -118.47059 2914 ft 208 kts 243°
2026-04-26 20:15 33.91926 -118.48494 3131 ft 235 kts 223°
2026-04-26 20:15 33.90594 -118.49731 3558 ft 245 kts 228°
2026-04-26 20:15 33.89475 -118.51285 4235 ft 244 kts 234°
2026-04-26 20:16 33.88389 -118.52875 4906 ft 248 kts 233°
2026-04-26 20:16 33.87268 -118.54477 5517 ft 253 kts 231°
2026-04-26 20:16 33.85829 -118.55698 6196 ft 263 kts 204°
2026-04-26 20:16 33.83988 -118.55958 6861 ft 274 kts 178°
2026-04-26 20:17 33.82080 -118.55523 7465 ft 283 kts 171°
2026-04-26 20:17 33.80148 -118.54968 8112 ft 287 kts 171°
2026-04-26 20:17 33.78198 -118.54404 8790 ft 290 kts 172°
2026-04-26 20:17 33.76219 -118.53851 9466 ft 294 kts 172°
2026-04-26 20:18 33.74203 -118.53301 10131 ft 299 kts 173°
2026-04-26 20:18 33.72112 -118.52737 10393 ft 319 kts 172°
2026-04-26 20:18 33.70017 -118.51651 10534 ft 351 kts 146°
2026-04-26 20:18 33.68390 -118.49347 10808 ft 373 kts 120°
2026-04-26 20:19 33.67189 -118.46552 11382 ft 380 kts 118°
2026-04-26 20:19 33.66009 -118.43697 12058 ft 383 kts 118°
2026-04-26 20:19 33.64818 -118.40822 12736 ft 386 kts 118°
2026-04-26 20:19 33.63608 -118.37935 13424 ft 390 kts 118°
2026-04-26 20:20 33.62366 -118.35013 14022 ft 396 kts 118°
2026-04-26 20:20 33.61096 -118.32049 14638 ft 400 kts 118°
2026-04-26 20:20 33.59817 -118.29077 15401 ft 401 kts 119°
2026-04-26 20:20 33.58532 -118.26099 16084 ft 404 kts 119°
2026-04-26 20:21 33.57236 -118.23099 16742 ft 407 kts 119°
2026-04-26 20:21 33.55924 -118.20063 17322 ft 413 kts 119°
2026-04-26 20:21 33.54597 -118.16999 17945 ft 416 kts 120°
2026-04-26 20:21 33.53258 -118.13907 18565 ft 419 kts 120°
2026-04-26 20:22 33.51915 -118.10789 19098 ft 423 kts 120°
2026-04-26 20:22 33.50562 -118.07639 19616 ft 427 kts 120°
2026-04-26 20:22 33.49195 -118.04462 20128 ft 431 kts 120°
2026-04-26 20:22 33.47815 -118.01260 20638 ft 434 kts 121°
2026-04-26 20:23 33.46201 -117.98221 21107 ft 432 kts 136°
2026-04-26 20:23 33.43996 -117.95812 21639 ft 429 kts 144°
2026-04-26 20:23 33.41725 -117.93495 22162 ft 432 kts 144°
2026-04-26 20:23 33.39435 -117.91135 22593 ft 436 kts 145°
2026-04-26 20:24 33.37136 -117.88737 23052 ft 440 kts 144°
2026-04-26 20:24 33.34837 -117.86316 23552 ft 443 kts 144°
2026-04-26 20:24 33.32519 -117.83862 23979 ft 445 kts 145°
2026-04-26 20:24 33.30196 -117.81399 24363 ft 448 kts 145°
2026-04-26 20:25 33.27857 -117.78919 24735 ft 451 kts 145°
2026-04-26 20:25 33.26297 -117.77268 24989 ft 453 kts 146°
2026-04-26 20:25 33.23125 -117.73911 25484 ft 457 kts 146°
2026-04-26 20:25 33.20740 -117.71389 25819 ft 460 kts 146°
2026-04-26 20:26 33.18333 -117.68848 26170 ft 463 kts 147°
2026-04-26 20:26 33.15914 -117.66298 26515 ft 466 kts 147°
2026-04-26 20:26 33.13540 -117.63728 26849 ft 470 kts 146°
2026-04-26 20:26 33.11140 -117.61063 27181 ft 473 kts 146°
2026-04-26 20:27 33.08735 -117.58365 27502 ft 476 kts 146°
2026-04-26 20:27 33.06320 -117.55654 27834 ft 479 kts 146°
2026-04-26 20:27 33.03857 -117.52895 28133 ft 481 kts 146°
2026-04-26 20:27 33.01430 -117.50189 28361 ft 485 kts 148°
2026-04-26 20:28 32.98957 -117.47440 28626 ft 488 kts 148°
2026-04-26 20:28 32.96466 -117.44678 28944 ft 490 kts 148°
2026-04-26 20:28 32.93972 -117.41914 29264 ft 492 kts 148°
2026-04-26 20:28 32.91458 -117.39132 29547 ft 494 kts 149°
2026-04-26 20:29 32.88934 -117.36340 29819 ft 497 kts 149°
2026-04-26 20:29 32.86391 -117.33531 30096 ft 499 kts 149°
2026-04-26 20:29 32.83844 -117.30716 30334 ft 501 kts 149°
2026-04-26 20:29 32.81287 -117.27892 30623 ft 502 kts 149°
2026-04-26 20:30 32.78732 -117.25069 30989 ft 500 kts 149°
2026-04-26 20:30 32.76195 -117.22267 31371 ft 498 kts 149°
2026-04-26 20:30 32.73660 -117.19474 31697 ft 497 kts 149°
2026-04-26 20:30 32.71122 -117.16683 31954 ft 497 kts 150°
2026-04-26 20:31 32.68591 -117.13901 32318 ft 496 kts 150°
2026-04-26 20:31 32.66070 -117.11123 32671 ft 495 kts 149°
2026-04-26 20:31 32.63647 -117.08175 32892 ft 503 kts 144°
2026-04-26 20:31 32.61309 -117.05054 33158 ft 506 kts 143°
2026-04-26 20:32 32.59008 -117.01906 33454 ft 506 kts 143°
2026-04-26 20:32 32.56680 -116.98781 33781 ft 503 kts 144°
2026-04-26 20:32 32.54346 -116.95724 34110 ft 501 kts 145°
2026-04-26 20:32 32.51989 -116.92694 34347 ft 500 kts 145°
2026-04-26 20:33 32.49616 -116.89678 34556 ft 500 kts 145°
2026-04-26 20:33 32.47254 -116.86674 34732 ft 500 kts 145°
2026-04-26 20:33 32.44884 -116.83660 35020 ft 497 kts 146°
2026-04-26 20:33 32.42531 -116.80678 35296 ft 495 kts 146°
2026-04-26 20:34 32.40182 -116.77705 35463 ft 496 kts 146°
2026-04-26 20:34 32.37840 -116.74662 35627 ft 498 kts 145°
2026-04-26 20:34 32.35487 -116.71667 35851 ft 498 kts 144°
2026-04-26 20:34 32.33375 -116.68338 36079 ft 510 kts 138°
2026-04-26 20:35 32.31111 -116.65260 36249 ft 486 kts 149°
2026-04-26 20:35 32.28653 -116.62671 36388 ft 479 kts 153°
2026-04-26 20:35 32.26138 -116.60039 36484 ft 487 kts 149°
2026-04-26 20:35 32.23776 -116.57133 36632 ft 497 kts 145°
2026-04-26 20:36 32.21477 -116.54092 36923 ft 493 kts 145°
2026-04-26 20:36 32.16849 -116.48111 37030 ft 492 kts 146°
2026-04-26 20:37 32.12147 -116.42182 37043 ft 495 kts 146°
2026-04-26 20:37 32.07415 -116.36260 37009 ft 497 kts 147°
2026-04-26 20:38 32.02677 -116.30324 37023 ft 498 kts 146°
2026-04-26 20:38 31.97927 -116.24355 36999 ft 499 kts 146°
2026-04-26 20:39 31.93201 -116.18418 37017 ft 497 kts 146°
2026-04-26 20:39 31.88476 -116.12497 36987 ft 495 kts 146°
2026-04-26 20:40 31.83756 -116.06608 37008 ft 493 kts 146°
2026-04-26 20:40 31.79066 -116.00747 37006 ft 491 kts 146°
2026-04-26 20:41 31.74389 -115.94916 37038 ft 489 kts 147°
2026-04-26 20:41 31.69709 -115.89115 36937 ft 488 kts 146°
2026-04-26 20:42 31.65042 -115.83347 37002 ft 486 kts 147°
2026-04-26 20:42 31.60417 -115.77632 36998 ft 486 kts 147°
2026-04-26 20:43 31.55746 -115.71874 36998 ft 487 kts 147°
2026-04-26 20:43 31.51047 -115.66082 36999 ft 487 kts 147°
2026-04-26 20:44 31.46390 -115.60365 36982 ft 489 kts 147°
2026-04-26 20:44 31.41698 -115.54587 36995 ft 491 kts 146°
2026-04-26 20:45 31.36988 -115.48802 36977 ft 492 kts 147°
2026-04-26 20:45 31.32236 -115.43017 36978 ft 494 kts 147°
2026-04-26 20:46 31.27482 -115.37196 36958 ft 494 kts 146°
2026-04-26 20:46 31.22733 -115.31382 36969 ft 495 kts 146°
2026-04-26 20:47 31.17966 -115.25570 36944 ft 495 kts 146°
2026-04-26 20:47 31.13200 -115.19770 36951 ft 495 kts 146°
2026-04-26 20:48 31.08433 -115.13976 36909 ft 494 kts 146°
2026-04-26 20:48 31.03689 -115.08207 36924 ft 493 kts 146°
2026-04-26 20:49 30.98960 -115.02433 36946 ft 491 kts 147°
2026-04-26 20:49 30.94216 -114.96719 36945 ft 490 kts 147°
2026-04-26 20:50 30.89467 -114.91035 36924 ft 489 kts 146°
2026-04-26 20:50 30.84751 -114.85344 36938 ft 488 kts 146°
2026-04-26 20:51 30.80042 -114.79662 36941 ft 489 kts 146°
2026-04-26 20:51 30.75321 -114.73978 36946 ft 489 kts 147°
2026-04-26 20:52 30.70580 -114.68280 36939 ft 490 kts 147°
2026-04-26 20:52 30.65828 -114.62579 36945 ft 491 kts 147°
2026-04-26 20:53 30.61099 -114.56914 36944 ft 492 kts 147°
2026-04-26 20:53 30.56322 -114.51200 36950 ft 494 kts 147°
2026-04-26 20:54 30.51495 -114.45436 36948 ft 495 kts 147°
2026-04-26 20:54 30.46720 -114.39739 36915 ft 496 kts 146°
2026-04-26 20:55 30.41913 -114.34013 36948 ft 497 kts 147°
2026-04-26 20:55 30.37093 -114.28282 36949 ft 497 kts 147°
2026-04-26 20:56 30.32261 -114.22544 36950 ft 497 kts 147°
2026-04-26 20:56 30.27428 -114.16813 36912 ft 497 kts 147°
2026-04-26 20:57 30.22604 -114.11102 36947 ft 496 kts 147°
2026-04-26 20:57 30.17777 -114.05396 36951 ft 495 kts 147°
2026-04-26 20:58 30.12966 -113.99718 36960 ft 495 kts 147°
2026-04-26 20:58 30.08149 -113.94042 36953 ft 495 kts 147°
2026-04-26 20:59 30.04140 -113.89323 36943 ft 494 kts 147°
2026-04-26 20:59 29.99329 -113.83668 36947 ft 494 kts 147°
2026-04-26 21:00 29.94515 -113.78017 36954 ft 494 kts 147°
2026-04-26 21:00 29.89692 -113.72365 36950 ft 494 kts 147°
2026-04-26 21:01 29.84881 -113.66730 36916 ft 494 kts 147°
2026-04-26 21:01 29.80061 -113.61095 36943 ft 494 kts 147°
2026-04-26 21:02 29.75234 -113.55473 36957 ft 494 kts 147°
2026-04-26 21:02 29.70391 -113.49843 36951 ft 495 kts 147°
2026-04-26 21:03 29.65538 -113.44203 36952 ft 496 kts 147°
2026-04-26 21:03 29.60694 -113.38576 36937 ft 495 kts 146°
2026-04-26 21:04 29.55842 -113.32948 36945 ft 496 kts 146°
2026-04-26 21:04 29.50985 -113.27323 36957 ft 496 kts 146°
2026-04-26 21:05 29.46128 -113.21707 36953 ft 497 kts 147°
2026-04-26 21:05 29.41247 -113.16072 36910 ft 497 kts 146°
2026-04-26 21:06 29.36383 -113.10462 36949 ft 496 kts 146°
2026-04-26 21:06 29.31505 -113.04845 36948 ft 496 kts 146°
2026-04-26 21:07 29.26635 -112.99246 36950 ft 497 kts 146°
2026-04-26 21:07 29.21788 -112.93682 36950 ft 497 kts 146°
2026-04-26 21:08 29.16913 -112.88092 36936 ft 495 kts 146°
2026-04-26 21:08 29.12016 -112.82485 36948 ft 495 kts 146°
2026-04-26 21:09 29.07142 -112.76914 36962 ft 495 kts 146°
2026-04-26 21:09 29.02299 -112.71387 36945 ft 495 kts 146°
2026-04-26 21:10 28.97425 -112.65830 36946 ft 495 kts 146°
2026-04-26 21:10 28.92553 -112.60283 36946 ft 494 kts 146°
2026-04-26 21:11 28.87684 -112.54749 36947 ft 495 kts 146°
2026-04-26 21:11 28.82799 -112.49204 36957 ft 495 kts 146°
2026-04-26 21:12 28.77906 -112.43661 36940 ft 496 kts 146°
2026-04-26 21:12 28.73014 -112.38120 36943 ft 496 kts 146°
2026-04-26 21:13 28.68119 -112.32586 36937 ft 496 kts 146°
2026-04-26 21:13 28.63219 -112.27055 36937 ft 496 kts 146°
2026-04-26 21:14 28.58320 -112.21533 36940 ft 496 kts 146°
2026-04-26 21:14 28.53418 -112.16015 36933 ft 496 kts 146°
2026-04-26 21:15 28.48518 -112.10506 36930 ft 495 kts 146°
2026-04-26 21:15 28.43625 -112.05013 36929 ft 494 kts 146°
2026-04-26 21:16 28.38734 -111.99529 36935 ft 494 kts 146°
2026-04-26 21:16 28.33839 -111.94051 36935 ft 494 kts 146°
2026-04-26 21:17 28.28941 -111.88575 36938 ft 494 kts 146°
2026-04-26 21:17 28.24058 -111.83123 36931 ft 493 kts 146°
2026-04-26 21:18 28.19159 -111.77662 36922 ft 493 kts 146°
2026-04-26 21:18 28.14300 -111.72251 36938 ft 493 kts 146°
2026-04-26 21:19 28.09405 -111.66809 36937 ft 493 kts 146°
2026-04-26 21:19 28.04477 -111.61337 36913 ft 493 kts 146°
2026-04-26 21:20 27.99618 -111.55948 36926 ft 493 kts 146°
2026-04-26 21:20 27.94715 -111.50518 36932 ft 493 kts 146°
2026-04-26 21:21 27.89818 -111.45103 36931 ft 493 kts 146°
2026-04-26 21:21 27.84903 -111.39674 36928 ft 493 kts 146°
2026-04-26 21:22 27.79998 -111.34264 36904 ft 493 kts 146°
2026-04-26 21:22 27.75092 -111.28859 36917 ft 492 kts 146°
2026-04-26 21:23 27.67737 -111.20771 36924 ft 492 kts 146°
2026-04-26 21:23 27.62833 -111.15387 36923 ft 492 kts 146°
2026-04-26 21:24 27.57925 -111.10006 36879 ft 492 kts 146°
2026-04-26 21:24 27.53015 -111.04628 36910 ft 492 kts 146°
2026-04-26 21:25 27.48106 -110.99260 36911 ft 492 kts 146°
2026-04-26 21:25 27.43203 -110.93906 36910 ft 492 kts 146°
2026-04-26 21:26 27.38290 -110.88547 36918 ft 492 kts 146°
2026-04-26 21:26 27.33384 -110.83203 36886 ft 492 kts 146°
2026-04-26 21:27 27.28466 -110.77853 36898 ft 491 kts 146°
2026-04-26 21:27 27.23550 -110.72511 36908 ft 491 kts 146°
2026-04-26 21:28 27.18632 -110.67175 36903 ft 491 kts 146°
2026-04-26 21:28 27.13712 -110.61845 36903 ft 492 kts 146°
2026-04-26 21:29 27.08820 -110.56550 36881 ft 492 kts 146°
2026-04-26 21:29 27.03867 -110.51196 36905 ft 492 kts 146°
2026-04-26 21:30 26.98973 -110.45913 36892 ft 492 kts 146°
2026-04-26 21:30 26.94041 -110.40596 36900 ft 492 kts 146°
2026-04-26 21:31 26.89111 -110.35288 36901 ft 492 kts 146°
2026-04-26 21:31 26.84178 -110.29983 36880 ft 492 kts 146°
2026-04-26 21:32 26.79244 -110.24684 36898 ft 492 kts 146°
2026-04-26 21:32 26.74307 -110.19387 36899 ft 492 kts 146°
2026-04-26 21:33 26.69366 -110.14095 36902 ft 492 kts 146°
2026-04-26 21:33 26.64429 -110.08813 36897 ft 492 kts 146°
2026-04-26 21:34 26.59480 -110.03524 36870 ft 492 kts 145°
2026-04-26 21:34 26.54538 -109.98249 36884 ft 491 kts 145°
2026-04-26 21:35 26.49594 -109.92979 36894 ft 491 kts 146°
2026-04-26 21:35 26.44647 -109.87712 36899 ft 491 kts 146°
2026-04-26 21:36 26.40541 -109.83346 36892 ft 491 kts 146°
2026-04-26 21:36 26.34757 -109.77203 36884 ft 491 kts 146°
2026-04-26 21:37 26.29809 -109.71955 36892 ft 491 kts 146°
2026-04-26 21:37 26.24887 -109.66740 36888 ft 491 kts 146°
2026-04-26 21:38 26.19908 -109.61470 36889 ft 491 kts 146°
2026-04-26 21:38 26.14989 -109.56271 36885 ft 491 kts 146°
2026-04-26 21:39 26.10035 -109.51038 36864 ft 491 kts 145°
2026-04-26 21:39 26.05084 -109.45817 36872 ft 491 kts 145°
2026-04-26 21:40 26.00119 -109.40593 36882 ft 490 kts 145°
2026-04-26 21:40 25.95162 -109.35381 36882 ft 491 kts 145°
2026-04-26 21:41 25.90201 -109.30166 36892 ft 491 kts 145°
2026-04-26 21:41 25.85237 -109.24952 36875 ft 491 kts 145°
2026-04-26 21:42 25.80272 -109.19743 36903 ft 491 kts 145°
2026-04-26 21:42 25.75308 -109.14541 36921 ft 491 kts 145°
2026-04-26 21:43 25.70335 -109.09334 36907 ft 492 kts 145°
2026-04-26 21:43 25.65409 -109.04060 36916 ft 494 kts 142°
2026-04-26 21:44 25.60633 -108.98547 36913 ft 496 kts 142°
2026-04-26 21:44 25.55872 -108.93031 36889 ft 495 kts 142°
2026-04-26 21:45 25.51095 -108.87539 36889 ft 495 kts 142°
2026-04-26 21:45 25.47107 -108.82998 36882 ft 495 kts 142°
2026-04-26 21:46 25.42295 -108.77525 36875 ft 495 kts 142°
2026-04-26 21:46 25.37490 -108.72055 36876 ft 496 kts 142°
2026-04-26 21:47 25.32681 -108.66591 36855 ft 496 kts 142°
2026-04-26 21:47 25.27865 -108.61146 36877 ft 495 kts 142°
2026-04-26 21:48 25.23046 -108.55709 36873 ft 495 kts 142°
2026-04-26 21:48 25.18225 -108.50268 36876 ft 495 kts 142°
2026-04-26 21:49 25.13402 -108.44826 36878 ft 495 kts 142°
2026-04-26 21:49 25.08582 -108.39398 36865 ft 496 kts 142°
2026-04-26 21:50 25.03762 -108.33975 36872 ft 495 kts 142°
2026-04-26 21:50 24.98939 -108.28548 36879 ft 495 kts 142°
2026-04-26 21:51 24.94117 -108.23124 36876 ft 495 kts 142°
2026-04-26 21:51 24.89298 -108.17711 36878 ft 495 kts 142°
2026-04-26 21:52 24.84472 -108.12295 36875 ft 495 kts 142°
2026-04-26 21:52 24.79635 -108.06874 36866 ft 495 kts 142°
2026-04-26 21:53 24.74809 -108.01471 36879 ft 495 kts 142°
2026-04-26 21:53 24.69980 -107.96072 36880 ft 495 kts 142°
2026-04-26 21:54 24.65147 -107.90674 36878 ft 495 kts 142°
2026-04-26 21:54 24.60324 -107.85295 36874 ft 495 kts 142°
2026-04-26 21:55 24.55526 -107.79949 36854 ft 494 kts 142°
2026-04-26 21:55 24.50705 -107.74582 36869 ft 493 kts 142°
2026-04-26 21:56 24.45882 -107.69221 36876 ft 493 kts 142°
2026-04-26 21:56 24.41059 -107.63865 36885 ft 493 kts 142°
2026-04-26 21:57 24.36237 -107.58519 36879 ft 493 kts 142°
2026-04-26 21:57 24.31412 -107.53173 36887 ft 493 kts 142°
2026-04-26 21:58 24.26589 -107.47837 36869 ft 493 kts 142°
2026-04-26 21:58 24.21766 -107.42506 36870 ft 493 kts 142°
2026-04-26 21:59 24.16940 -107.37178 36873 ft 492 kts 141°
2026-04-26 21:59 24.12106 -107.31847 36873 ft 492 kts 141°
2026-04-26 22:00 24.07283 -107.26534 36875 ft 493 kts 142°
2026-04-26 22:00 24.02451 -107.21219 36879 ft 493 kts 142°
2026-04-26 22:01 23.97611 -107.15898 36875 ft 493 kts 141°
2026-04-26 22:01 23.92782 -107.10597 36876 ft 493 kts 141°
2026-04-26 22:02 23.87945 -107.05293 36878 ft 493 kts 141°
2026-04-26 22:02 23.83084 -106.99969 36878 ft 493 kts 141°
2026-04-26 22:03 23.78271 -106.94702 36882 ft 494 kts 141°
2026-04-26 22:03 23.73418 -106.89397 36879 ft 494 kts 141°
2026-04-26 22:04 23.68571 -106.84105 36881 ft 494 kts 141°
2026-04-26 22:04 23.63713 -106.78806 36883 ft 494 kts 142°
2026-04-26 22:05 23.58845 -106.73501 36882 ft 494 kts 142°
2026-04-26 22:05 23.53982 -106.68205 36878 ft 494 kts 142°
2026-04-26 22:06 23.49124 -106.62925 36883 ft 494 kts 142°
2026-04-26 22:06 23.44274 -106.57655 36878 ft 493 kts 141°
2026-04-26 22:07 23.39409 -106.52369 36883 ft 494 kts 141°
2026-04-26 22:07 23.34549 -106.47092 36883 ft 494 kts 141°
2026-04-26 22:08 23.29674 -106.41804 36880 ft 494 kts 141°
2026-04-26 22:08 23.24812 -106.36532 36882 ft 494 kts 141°
2026-04-26 22:09 23.19940 -106.31258 36872 ft 494 kts 141°
2026-04-26 22:09 23.14663 -106.26674 36907 ft 479 kts 157°
2026-04-26 22:10 23.08678 -106.23824 36911 ft 468 kts 167°
2026-04-26 22:10 23.02571 -106.21325 36906 ft 468 kts 167°
2026-04-26 22:11 22.96487 -106.18784 36882 ft 469 kts 166°
2026-04-26 22:11 22.90401 -106.16204 36882 ft 470 kts 166°
2026-04-26 22:12 22.84307 -106.13617 36889 ft 470 kts 166°
2026-04-26 22:12 22.78201 -106.11029 36883 ft 471 kts 166°
2026-04-26 22:13 22.72086 -106.08440 36887 ft 472 kts 166°
2026-04-26 22:13 22.65958 -106.05852 36885 ft 473 kts 166°
2026-04-26 22:14 22.59823 -106.03267 36860 ft 474 kts 166°
2026-04-26 22:14 22.53677 -106.00677 36786 ft 475 kts 166°
2026-04-26 22:15 22.50580 -105.99374 36245 ft 479 kts 166°
2026-04-26 22:15 22.47480 -105.98067 35675 ft 477 kts 165°
2026-04-26 22:15 22.44390 -105.96764 35029 ft 477 kts 165°
2026-04-26 22:15 22.41295 -105.95460 34384 ft 477 kts 165°
2026-04-26 22:16 22.38189 -105.94153 33653 ft 479 kts 165°
2026-04-26 22:16 22.35082 -105.92846 32898 ft 480 kts 165°
2026-04-26 22:16 22.31972 -105.91539 32207 ft 479 kts 165°
2026-04-26 22:16 22.28879 -105.90235 31711 ft 474 kts 164°
2026-04-26 22:17 22.25821 -105.88948 31204 ft 470 kts 164°
2026-04-26 22:17 22.22787 -105.87673 30714 ft 466 kts 164°
2026-04-26 22:17 22.19779 -105.86411 30222 ft 463 kts 164°
2026-04-26 22:17 22.16790 -105.85158 29668 ft 460 kts 164°
2026-04-26 22:18 22.13819 -105.83912 29125 ft 456 kts 164°
2026-04-26 22:18 22.10871 -105.82677 28593 ft 451 kts 163°
2026-04-26 22:18 22.07962 -105.81458 28109 ft 446 kts 163°
2026-04-26 22:18 22.05086 -105.80254 27628 ft 442 kts 163°
2026-04-26 22:19 22.02235 -105.79062 27129 ft 438 kts 163°
2026-04-26 22:19 21.99405 -105.77879 26639 ft 434 kts 163°
2026-04-26 22:19 21.96600 -105.76706 26162 ft 430 kts 163°
2026-04-26 22:19 21.93819 -105.75543 25681 ft 427 kts 162°
2026-04-26 22:20 21.91054 -105.74388 25193 ft 424 kts 162°
2026-04-26 22:20 21.89236 -105.73628 24863 ft 423 kts 162°
2026-04-26 22:20 21.85587 -105.72103 24214 ft 419 kts 162°
2026-04-26 22:20 21.82920 -105.70989 23739 ft 417 kts 162°
2026-04-26 22:21 21.80217 -105.69862 23213 ft 415 kts 162°
2026-04-26 22:21 21.77553 -105.68685 22672 ft 414 kts 156°
2026-04-26 22:21 21.75045 -105.67170 22165 ft 412 kts 152°
2026-04-26 22:21 21.72627 -105.65535 21662 ft 409 kts 150°
2026-04-26 22:22 21.70244 -105.63884 21165 ft 405 kts 150°
2026-04-26 22:22 21.67880 -105.62257 20681 ft 402 kts 150°
2026-04-26 22:22 21.65527 -105.60661 20197 ft 398 kts 150°
2026-04-26 22:22 21.63191 -105.59097 19753 ft 394 kts 150°
2026-04-26 22:23 21.60866 -105.57554 19304 ft 390 kts 151°
2026-04-26 22:23 21.58565 -105.56036 18838 ft 387 kts 151°
2026-04-26 22:23 21.56279 -105.54532 18365 ft 385 kts 151°
2026-04-26 22:23 21.54000 -105.53034 17851 ft 383 kts 151°
2026-04-26 22:24 21.51732 -105.51543 17362 ft 379 kts 151°
2026-04-26 22:24 21.49495 -105.50073 16885 ft 375 kts 151°
2026-04-26 22:24 21.47282 -105.48620 16438 ft 371 kts 150°
2026-04-26 22:24 21.45088 -105.47179 15992 ft 368 kts 150°
2026-04-26 22:25 21.42915 -105.45752 15547 ft 364 kts 150°
2026-04-26 22:25 21.40768 -105.44342 15115 ft 361 kts 150°
2026-04-26 22:25 21.38633 -105.42941 14687 ft 358 kts 150°
2026-04-26 22:25 21.36519 -105.41553 14239 ft 355 kts 150°
2026-04-26 22:26 21.34417 -105.40175 13797 ft 353 kts 150°
2026-04-26 22:26 21.32332 -105.38809 13337 ft 350 kts 150°
2026-04-26 22:26 21.30262 -105.37454 12885 ft 347 kts 150°
2026-04-26 22:26 21.28218 -105.36116 12489 ft 343 kts 150°
2026-04-26 22:27 21.26190 -105.34790 12116 ft 339 kts 150°
2026-04-26 22:27 21.24191 -105.33483 11730 ft 336 kts 150°
2026-04-26 22:27 21.22204 -105.32185 11353 ft 333 kts 150°
2026-04-26 22:27 21.20251 -105.30908 10971 ft 324 kts 150°
2026-04-26 22:28 21.18359 -105.29670 10601 ft 313 kts 150°
2026-04-26 22:28 21.16551 -105.28488 10248 ft 306 kts 151°
2026-04-26 22:28 21.14753 -105.27311 9915 ft 299 kts 151°
2026-04-26 22:28 21.13020 -105.26179 9703 ft 290 kts 151°
2026-04-26 22:29 21.11270 -105.25038 9272 ft 294 kts 150°
2026-04-26 22:29 21.09516 -105.23895 8922 ft 293 kts 150°
2026-04-26 22:29 21.07801 -105.22774 8546 ft 286 kts 150°
2026-04-26 22:29 21.06124 -105.21680 8218 ft 279 kts 149°
2026-04-26 22:30 21.04494 -105.20613 7927 ft 270 kts 150°
2026-04-26 22:30 21.02925 -105.19589 7610 ft 260 kts 150°
2026-04-26 22:30 21.01400 -105.18599 7343 ft 253 kts 150°
2026-04-26 22:30 20.99927 -105.17638 7048 ft 247 kts 149°
2026-04-26 22:31 20.98472 -105.16685 6765 ft 242 kts 149°
2026-04-26 22:31 20.97045 -105.15758 6490 ft 240 kts 150°
2026-04-26 22:31 20.95610 -105.14824 6193 ft 243 kts 149°
2026-04-26 22:31 20.94174 -105.13882 5911 ft 242 kts 150°
2026-04-26 22:32 20.93219 -105.13261 5733 ft 243 kts 150°
2026-04-26 22:32 20.91794 -105.12316 5441 ft 237 kts 146°
2026-04-26 22:32 20.90542 -105.11263 5159 ft 221 kts 141°
2026-04-26 22:32 20.89405 -105.10239 4882 ft 207 kts 141°
2026-04-26 22:33 20.88326 -105.09272 4678 ft 199 kts 141°
2026-04-26 22:33 20.86189 -105.07380 4235 ft 200 kts 144°
2026-04-26 22:33 20.84920 -105.06842 3994 ft 199 kts 186°
2026-04-26 22:34 20.83711 -105.07392 3831 ft 189 kts 224°
2026-04-26 22:34 20.82775 -105.08402 3643 ft 192 kts 228°
2026-04-26 22:34 20.81869 -105.09454 3370 ft 191 kts 227°
2026-04-26 22:34 20.80992 -105.10472 3194 ft 183 kts 228°
2026-04-26 22:35 20.80148 -105.11453 2977 ft 175 kts 228°
2026-04-26 22:35 20.79343 -105.12388 2783 ft 168 kts 229°
2026-04-26 22:35 20.78550 -105.13304 2657 ft 168 kts 229°
2026-04-26 22:35 20.77729 -105.14247 2578 ft 173 kts 229°
2026-04-26 22:36 20.76938 -105.15148 2432 ft 163 kts 228°
2026-04-26 22:36 20.76160 -105.16018 2209 ft 161 kts 229°
2026-04-26 22:36 20.75394 -105.16869 1956 ft 156 kts 231°
2026-04-26 22:36 20.74673 -105.17727 1812 ft 157 kts 231°
2026-04-26 22:37 20.73908 -105.18588 1650 ft 162 kts 231°
2026-04-26 22:37 20.73131 -105.19483 1501 ft 167 kts 230°
2026-04-26 22:37 20.72363 -105.20422 1313 ft 168 kts 230°
2026-04-26 22:37 20.71575 -105.21353 1109 ft 169 kts 231°
2026-04-26 22:38 20.70747 -105.22259 843 ft 169 kts 230°
2026-04-26 22:38 20.69957 -105.23171 578 ft 164 kts 227°
2026-04-26 22:38 20.69225 -105.24011 206 ft 148 kts 230°
2026-04-26 22:38 20.68573 -105.24771 34 ft 128 kts 227°
2026-04-26 22:39 20.68027 -105.25392 22 ft 101 kts 226°
2026-04-26 22:39 20.67640 -105.25849 18 ft 39 kts 225°
2026-04-26 22:39 20.67490 -105.25933 17 ft 21 kts 202°
2026-04-26 22:39 20.67388 -105.25965 17 ft 13 kts 180°
2026-04-26 22:40 20.67351 -105.25927 18 ft 0 kts 110°
2026-04-26 22:40 20.67351 -105.25925 18 ft 1 kts 102°
2026-04-26 22:40 20.67375 -105.25890 19 ft 7 kts 51°
2026-04-26 22:40 20.67407 -105.25849 18 ft 7 kts 49°
2026-04-26 22:41 20.67444 -105.25805 18 ft 10 kts 46°
2026-04-26 22:41 20.67500 -105.25743 18 ft 12 kts 46°
2026-04-26 22:41 20.67558 -105.25679 19 ft 12 kts 47°
2026-04-26 22:41 20.67617 -105.25610 19 ft 14 kts 46°
2026-04-26 22:42 20.67685 -105.25535 20 ft 14 kts 47°
2026-04-26 22:42 20.67748 -105.25460 22 ft 13 kts 49°
2026-04-26 22:42 20.67810 -105.25390 21 ft 13 kts 45°
2026-04-26 22:42 20.67868 -105.25320 21 ft 12 kts 47°
2026-04-26 22:43 20.67915 -105.25247 21 ft 12 kts 86°
2026-04-26 22:43 20.67867 -105.25177 23 ft 12 kts 140°
2026-04-26 22:43 20.67833 -105.25114 21 ft 9 kts 73°
2026-04-26 22:43 20.67858 -105.25063 22 ft 7 kts 60°
2026-04-26 22:44 20.67890 -105.25020 22 ft 10 kts 44°
2026-04-26 22:44 20.67964 -105.24970 22 ft 13 kts 33°
2026-04-26 22:44 20.67993 -105.24881 23 ft 13 kts 63°
2026-04-26 22:44 20.68029 -105.24827 22 ft 3 kts 58°
2026-04-26 22:45 20.68014 -105.24817 22 ft 5 kts 189°
2026-04-26 22:45 20.67960 -105.24804 22 ft 8 kts 149°
2026-04-26 22:45 20.67913 -105.24800 22 ft 5 kts 205°
2026-04-26 22:45 20.67891 -105.24815 23 ft 2 kts 219°
2026-04-26 22:46 20.67886 -105.24820 22 ft 0 kts 221°